Location: Milton Keynes
(52.0316°N, 0.7531°W)
Time: 19:51:41
(UTC+00:00)

N. Korean satellite - Pass Details

Date: 23 January 2019
Orbit: 456 x 510 km, 97.2° (Epoch: 20 February)

Event Time Altitude Azimuth Distance (km) Brightness Sun altitude
Rises 17:24:44 0° 170° (S) 2,588 10.4 -7.8°
Reaches altitude 10° 17:26:48 10° 172° (S) 1,715 9.5 -8.1°
Maximum altitude 17:30:29 72° 258° (WSW) 540 7.0 -8.6°
Drops below altitude 10° 17:34:15 10° 343° (NNW) 1,744 9.4 -9.2°
Sets 17:36:22 0° 346° (NNW) 2,637 10.2 -9.5°
